Weather reports worldwide

Advertisment
Guernsey, United Kingdom (3894): temperature & dewpoint: 13.02.2018 14:00:00 - 19.02.2018 14:00:00 (GMT)Guernsey, United Kingdom (3894): temperature -20cm & temperature -100cm: 13.02.2018 14:00:00 - 19.02.2018 14:00:00 (GMT)Guernsey, United Kingdom (3894): wind speed & gusts: 13.02.2018 14:00:00 - 19.02.2018 14:00:00 (GMT)Guernsey, United Kingdom (3894): wind direction: 13.02.2018 14:00:00 - 19.02.2018 14:00:00 (GMT)Guernsey, United Kingdom (3894): reduced air pressure: 13.02.2018 14:00:00 - 19.02.2018 14:00:00 (GMT)Guernsey, United Kingdom (3894): visibility: 13.02.2018 14:00:00 - 19.02.2018 14:00:00 (GMT)Guernsey, United Kingdom (3894): precipitation: 13.02.2018 14:00:00 - 19.02.2018 14:00:00 (GMT)
Date & Time tt [°C] td [°C] tt -20cm [°C] tt -100cm [°C] ff [km/h] ff [kn] fx [km/h] fx [kn] dd ppp [hPa] vv [km] rr [mm]
19.02.2018 14:00:00 10,0 10,0 - - 21 11 - - NW - 3,0 -
19.02.2018 13:00:00 9,9 9,9 - - 21 11 - - NW 1019,0 3,2 -
19.02.2018 12:00:00 10,2 10,2 - - 15 8 - - NW 1019,3 10 -
19.02.2018 11:00:00 9,8 9,8 - - 13 7 - - NW 1019,3 3,8 -
19.02.2018 10:00:00 9,3 9,3 - - 13 7 - - NW 1019,4 0,2 -
19.02.2018 09:00:00 9,3 9,3 7,7 8,2 15 8 - - NW 1019,3 0,1 -
19.02.2018 08:00:00 9,0 9,0 - - 11 6 - - WNW 1019,1 0,1 -
19.02.2018 07:00:00 8,8 8,8 - - 9 5 - - NW 1019,0 0,2 -
19.02.2018 06:00:00 8,7 8,7 - - 9 5 - - NNW 1018,8 0,7 -
19.02.2018 05:00:00 8,7 8,7 - - 11 6 - - NNW 1018,6 0,5 -
19.02.2018 04:00:00 8,8 8,8 - - 11 6 - - NNW 1018,7 0,8 -
19.02.2018 03:00:00 9,0 9,0 - - 11 6 - - NW 1019,0 0,1 -
19.02.2018 02:00:00 9,0 9,0 - - 9 5 - - NW 1019,2 0,2 -
19.02.2018 01:00:00 9,2 9,2 - - 9 5 - - WNW 1019,4 0,3 -
19.02.2018 00:00:00 8,9 8,9 - - 8 4 - - WNW 1019,7 0,3 -
18.02.2018 23:00:00 8,9 8,9 - - 5 3 - - NNW 1019,7 0,4 -
18.02.2018 22:00:00 8,8 8,8 - - 5 3 - - NW 1019,9 0,5 -
18.02.2018 21:00:00 8,9 8,9 - - 8 4 - - WNW 1020,1 0,8 -
18.02.2018 20:00:00 8,9 8,9 - - 5 3 - - NW 1020,1 0,2 -
18.02.2018 19:00:00 8,9 8,9 - - 5 3 - - NW 1019,9 0,3 -
18.02.2018 18:00:00 9,1 9,1 - - 8 4 - - NNW 1020,1 0,7 -
18.02.2018 17:00:00 9,3 9,3 - - 8 4 - - NW 1019,7 0,3 -
18.02.2018 16:00:00 9,6 9,6 - - 9 5 - - W 1019,3 0,1 -
18.02.2018 15:00:00 9,9 9,9 - - 11 6 - - W 1019,3 0,2 -
18.02.2018 14:00:00 10,0 10,0 - - 9 5 - - WSW 1019,4 0,2 -
18.02.2018 13:00:00 9,5 9,5 - - 13 7 - - S 1019,6 - -
18.02.2018 12:00:00 8,8 8,8 - - 18 10 - - S 1019,8 0,1 -
18.02.2018 11:00:00 8,3 8,3 - - 18 10 - - SSE 1020,0 0,2 -
18.02.2018 10:00:00 7,7 7,7 - - 18 10 - - SSE 1020,5 0,5 -
18.02.2018 09:00:00 7,5 7,5 7,2 8,2 22 12 - - SSE 1020,2 0,6 -
18.02.2018 08:00:00 7,4 7,3 - - 18 10 - - SSE 1020,8 0,3 -
18.02.2018 07:00:00 7,2 7,1 - - 18 10 - - SSE 1020,7 1,0 -
18.02.2018 06:00:00 6,8 6,7 - - 26 14 - - SSE 1020,5 3,0 -
18.02.2018 05:00:00 6,5 6,3 - - 24 13 - - SSE 1020,9 4,0 -
18.02.2018 04:00:00 6,3 6,1 - - 28 15 - - SSE 1021,3 4,0 -
18.02.2018 03:00:00 6,3 5,9 - - 28 15 - - SSE 1021,6 7 -
18.02.2018 02:00:00 6,6 5,7 - - 31 17 - - S 1022,1 20 -
18.02.2018 01:00:00 7,0 5,2 - - 21 11 - - S 1022,4 25 -
18.02.2018 00:00:00 7,3 5,4 - - 21 11 - - S 1023,2 20 -
17.02.2018 23:00:00 7,5 6,1 - - 16 9 - - SSW 1023,6 15 -
17.02.2018 22:00:00 7,4 5,0 - - 16 9 - - SW 1023,9 15 -
17.02.2018 21:00:00 8,1 6,4 - - 15 8 - - SW 1023,8 10 -
17.02.2018 20:00:00 7,6 6,3 - - 13 7 - - SSW 1023,9 10 -
17.02.2018 19:00:00 7,4 5,8 - - 11 6 - - SW 1024,3 10 -
17.02.2018 18:00:00 6,3 4,2 - - 11 6 - - WSW 1024,2 10 0,0
17.02.2018 17:00:00 8,0 4,8 - - 16 9 - - W 1023,7 10 -
17.02.2018 16:00:00 9,3 6,5 - - 13 7 - - W 1023,4 10 -
17.02.2018 15:00:00 8,8 6,3 - - 13 7 - - WNW 1023,4 10 -
17.02.2018 14:00:00 10,2 6,3 - - 15 8 - - WSW 1023,5 10 -
17.02.2018 13:00:00 9,4 4,0 - - 13 7 - - W 1023,8 10 -
17.02.2018 12:00:00 9,5 4,3 - - 13 7 - - W 1023,7 10 0,0
17.02.2018 11:00:00 8,8 4,7 - - 11 6 - - W 1023,1 10 -
17.02.2018 10:00:00 8,1 4,4 - - 9 5 - - NW 1022,7 10 -
17.02.2018 09:00:00 6,2 4,6 6,7 8,4 5 3 - - NW 1022,2 10 -
17.02.2018 08:00:00 3,9 2,6 - - 5 3 - - NW 1021,9 10 -
17.02.2018 07:00:00 3,8 2,6 - - 5 3 - - NNW 1021,2 10 -
17.02.2018 06:00:00 3,8 2,4 - - 4 2 - - N 1020,9 10 0,0
17.02.2018 05:00:00 3,6 2,1 - - 4 2 - - NNE 1020,4 10 -
17.02.2018 04:00:00 3,0 1,6 - - 2 1 - - - 1020,2 10 -
17.02.2018 03:00:00 3,8 2,0 - - 8 4 - - E 1019,6 30 -
17.02.2018 02:00:00 4,2 2,0 - - 11 6 - - ESE 1019,9 30 -
17.02.2018 01:00:00 6,0 1,8 - - 15 8 - - SE 1020,1 30 -
17.02.2018 00:00:00 6,2 1,8 - - 13 7 - - SE 1020,9 30 0,0
16.02.2018 23:00:00 6,3 2,6 - - 15 8 - - SE 1021,0 30 -
16.02.2018 22:00:00 6,4 1,9 - - 16 9 - - SE 1021,5 35 -
16.02.2018 21:00:00 6,3 1,4 - - 15 8 - - ESE 1021,7 10 -
16.02.2018 20:00:00 6,6 1,5 - - 18 10 - - SE 1021,8 10 -
16.02.2018 19:00:00 6,5 1,5 - - 16 9 - - ESE 1022,4 10 -
16.02.2018 18:00:00 6,5 0,8 - - 16 9 - - SE 1022,8 10 0,0
16.02.2018 17:00:00 6,6 1,4 - - 15 8 - - SE 1023,5 10 -
16.02.2018 16:00:00 7,1 2,2 - - 16 9 - - SE 1023,7 10 -
16.02.2018 15:00:00 7,8 3,9 - - 18 10 - - SSE 1024,2 10 -
16.02.2018 14:00:00 8,7 3,3 - - 18 10 - - SSE 1025,2 10 -
16.02.2018 13:00:00 8,9 3,6 - - 21 11 - - SSE 1025,9 10 -
16.02.2018 12:00:00 9,1 3,9 - - 16 9 - - S 1026,8 10 0,0
16.02.2018 11:00:00 9,0 2,8 - - 11 6 - - S 1026,8 10 -
16.02.2018 10:00:00 8,7 3,1 - - 11 6 - - S 1026,7 10 -
16.02.2018 09:00:00 7,3 3,1 6,9 8,2 5 3 - - SW 1026,6 10 -
16.02.2018 08:00:00 5,2 1,0 - - 8 4 - - WSW 1026,4 10 -
16.02.2018 07:00:00 5,0 1,2 - - 5 3 - - WSW 1026,0 10 -
16.02.2018 06:00:00 4,7 1,2 - - 8 4 - - WSW 1025,9 10 -
16.02.2018 05:00:00 4,6 0,9 - - 4 2 - - W 1025,6 10 -
16.02.2018 04:00:00 4,9 1,6 - - 8 4 - - W 1025,0 10 -
16.02.2018 03:00:00 5,3 1,8 - - 8 4 - - WNW 1024,9 35 -
16.02.2018 02:00:00 5,6 1,3 - - 13 7 - - W 1024,5 35 -
16.02.2018 01:00:00 5,5 1,1 - - 11 6 - - W 1024,0 40 -
16.02.2018 00:00:00 6,4 -0,8 - - 13 7 - - WNW 1023,5 40 -
15.02.2018 23:00:00 6,2 0,5 - - 15 8 - - W 1023,1 40 -
15.02.2018 22:00:00 6,7 0,1 - - 21 11 - - WNW 1022,7 10 -
15.02.2018 21:00:00 6,4 1,1 - - 18 10 - - W 1021,8 10 -
15.02.2018 20:00:00 5,7 1,3 - - 11 6 - - W 1021,2 10 -
15.02.2018 19:00:00 7,1 1,2 - - 21 11 - - W 1020,4 10 -
15.02.2018 18:00:00 6,0 2,5 - - 22 12 - - NW 1019,7 10 -
15.02.2018 17:00:00 7,8 1,4 - - 21 11 - - W 1018,6 10 -
15.02.2018 16:00:00 8,6 1,9 - - 22 12 - - W 1017,8 10 -
15.02.2018 15:00:00 8,9 2,3 - - 18 10 - - W 1016,8 10 -
15.02.2018 14:00:00 8,8 4,1 - - 16 9 - - WNW 1016,0 10 -
15.02.2018 13:00:00 9,2 4,4 - - 18 10 - - NW 1015,6 10 -
15.02.2018 12:00:00 9,7 5,1 - - 21 11 - - WNW 1014,7 10 -
15.02.2018 11:00:00 9,5 6,0 - - 18 10 - - WNW 1013,8 10 -
15.02.2018 10:00:00 9,0 5,1 - - 16 9 - - W 1012,7 10 -
15.02.2018 09:00:00 9,3 7,2 7,0 8,4 21 11 - - W 1011,4 10 -
15.02.2018 08:00:00 9,1 7,2 - - 18 10 - - W 1010,3 10 -
15.02.2018 07:00:00 9,4 7,7 - - 22 12 - - W 1009,0 10 -
15.02.2018 06:00:00 9,4 8,9 - - 26 14 - - W 1007,9 9 -
15.02.2018 05:00:00 9,7 9,4 - - 29 16 - - WSW 1007,0 8 -
15.02.2018 04:00:00 9,7 9,5 - - 29 16 - - WSW 1006,4 5 -
15.02.2018 03:00:00 10,0 10,0 - - 26 14 - - WSW 1005,8 4,0 -
15.02.2018 02:00:00 10,0 10,0 - - 26 14 - - WSW 1005,2 4,0 -
15.02.2018 01:00:00 10,0 10,0 - - 28 15 - - WSW 1004,9 1,8 -
15.02.2018 00:00:00 10,2 10,2 - - 28 15 - - WSW 1004,5 0,6 -
14.02.2018 23:00:00 10,1 10,1 - - 24 13 - - SW 1002,9 0,3 -
14.02.2018 22:00:00 10,3 10,3 - - 24 13 - - WSW 1003,0 0,2 -
14.02.2018 21:00:00 10,3 10,3 - - 22 12 - - SW 1002,7 0,3 -
14.02.2018 20:00:00 9,7 9,7 - - 24 13 - - SSW 1002,2 0,2 -
14.02.2018 19:00:00 8,7 8,7 - - 24 13 - - S 1002,2 0,2 -
14.02.2018 18:00:00 8,4 8,3 - - 29 16 - - S 1001,9 1,4 -
14.02.2018 17:00:00 8,1 7,9 - - 26 14 - - S 1001,9 8 -
14.02.2018 16:00:00 7,7 7,1 - - 29 16 54 29 S 1002,3 5 -
14.02.2018 15:00:00 7,1 6,2 - - 37 20 57 31 S 1002,3 10 -
14.02.2018 14:00:00 7,0 5,6 - - 41 22 59 32 S 1002,2 10 -
14.02.2018 13:00:00 6,1 5,2 - - 42 23 67 36 S 1002,7 10 -
14.02.2018 12:00:00 5,8 4,8 - - 48 26 72 39 S 1003,5 8 -
14.02.2018 11:00:00 5,2 4,4 - - 46 25 74 40 SSE 1003,9 8 -
14.02.2018 10:00:00 4,8 4,0 - - 46 25 68 37 SSE 1004,2 8 -
14.02.2018 09:00:00 4,7 3,4 6,2 8,4 44 24 67 36 S 1004,8 10 -
14.02.2018 08:00:00 4,5 2,2 - - 41 22 67 36 S 1005,0 10 -
14.02.2018 07:00:00 5,8 0,3 - - 41 22 61 33 S 1005,3 10 -
14.02.2018 06:00:00 5,9 -0,4 - - 31 17 46 25 S 1006,3 10 0,0
14.02.2018 05:00:00 5,6 -1,4 - - 28 15 - - S 1007,0 10 -
14.02.2018 04:00:00 5,6 -1,2 - - 22 12 - - S 1007,9 10 -
14.02.2018 03:00:00 5,0 -1,7 - - 13 7 - - SSW 1008,7 45 -
14.02.2018 02:00:00 3,3 -1,7 - - 9 5 - - SSW 1009,3 45 -
14.02.2018 01:00:00 2,8 -1,9 - - 9 5 - - SW 1009,3 45 -
14.02.2018 00:00:00 2,2 -1,6 - - 0 0 - - N 1009,5 50 0,0
13.02.2018 23:00:00 4,0 -1,3 - - 13 7 - - NW 1009,7 45 -
13.02.2018 22:00:00 4,6 -2,3 - - 15 8 - - NW 1009,5 50 -
13.02.2018 21:00:00 4,8 -3,7 - - 18 10 - - NW 1008,9 10 -
13.02.2018 20:00:00 5,1 -4,5 - - 21 11 - - NW 1008,2 10 -
13.02.2018 19:00:00 5,4 -3,4 - - 22 12 - - NW 1007,4 10 -
13.02.2018 18:00:00 5,5 -0,9 - - 24 13 - - NW 1006,2 10 -
13.02.2018 17:00:00 5,9 1,6 - - 28 15 48 26 NW 1005,2 10 -
13.02.2018 16:00:00 5,9 0,9 - - 29 16 52 28 NW 1003,7 10 -
13.02.2018 15:00:00 6,0 2,5 - - 31 17 50 27 NW 1002,5 10 -
13.02.2018 14:00:00 6,3 3,0 - - 34 18 61 33 NW 1001,4 10 -

tt = temperature
td = dewpoint
tt -20cm = temperature -20cm
tt -100cm = temperature -100cm
ff = wind speed
fx = gusts
dd = wind direction
ppp = reduced air pressure
vv = visibility
rr = precipitation

Next stations